EW2348 Weather Reports


Display with metric or nautical units.
time (UTC)temp
F
wind
direction
speed
MPH
gust
MPH
rain 1hr
in
rain 24hr
in
rain mn
in
humidity
%
barometer
mb
20141031212013 40 232 1.0 5.0 0.01 0.13 0.13 85 1013.1
20141031210012 40 240 3.0 14.0 0.01 0.13 0.13 85 1013.1
20141031205013 40 220 2.0 8.0 0.02 0.13 0.13 85 1012.9
20141031203012 40 241 1.0 9.0 0.02 0.13 0.13 84 1013.0
20141031202011 39 268 4.0 13.0 0.02 0.12 0.12 84 1013.0
20141031201011 39 227 2.0 14.0 0.02 0.12 0.12 84 1013.0
20141031200012 40 270 4.0 9.0 0.04 0.12 0.12 84 1012.9
20141031194011 40 298 5.0 12.0 0.04 0.11 0.11 83 1012.7
20141031193011 41 242 4.0 11.0 0.04 0.11 0.11 82 1012.6
20141031191011 41 278 3.0 9.0 0.04 0.09 0.09 83 1012.5
20141031190011 41 256 3.0 14.0 0.04 0.08 0.08 85 1012.5
20141031185011 41 238 2.0 13.0 0.07 0.08 0.08 86 1012.4
20141031184011 42 257 4.0 11.0 0.06 0.07 0.07 85 1012.4
20141031183012 43 223 4.0 8.0 0.06 0.07 0.07 85 1012.2
20141031181010 44 216 2.0 10.0 0.05 0.06 0.06 86 1012.2
20141031180011 44 195 1.0 15.0 0.04 0.05 0.05 86 1012.3
20141031175010 46 228 3.0 7.0 0.00 0.01 0.01 86 1012.3
20141031174010 46 228 3.0 7.0 0.00 0.01 0.01 86 1012.6
20141031173010 46 228 3.0 7.0 0.00 0.01 0.01 86 1012.5
20141031172010 46 218 2.0 6.0 0.00 0.01 0.01 86 1012.7
20141031171010 46 196 2.0 7.0 0.00 0.01 0.01 85 1012.8
20141031170009 47 172 2.0 8.0 0.00 0.01 0.01 95 1013.0
20141031165009 47 177 4.0 5.0 0.00 0.01 0.01 87 1013.2
20141031164010 47 173 2.0 7.0 0.00 0.01 0.01 86 1013.3
20141031163009 47 161 4.0 8.0 0.00 0.01 0.01 86 1013.3
20141031162009 46 153 4.0 8.0 0.00 0.01 0.01 86 1013.4
20141031155009 46 174 1.0 8.0 0.00 0.01 0.01 86 1013.7
20141031154009 46 166 3.0 7.0 0.00 0.01 0.01 86 1013.8
20141031152008 46 153 2.0 6.0 0.00 0.01 0.01 86 1014.0
20141031150008 45 168 2.0 6.0 0.00 0.01 0.01 86 1014.1
20141031145008 45 167 3.0 8.0 0.00 0.01 0.01 85 1014.2
20141031142010 44 137 2.0 7.0 0.00 0.01 0.01 86 1014.4
20141031140008 44 133 4.0 6.0 0.00 0.01 0.01 86 1014.6
20141031134008 44 122 2.0 4.0 0.00 0.01 0.01 86 1014.8
20141031133007 43 105 3.0 5.0 0.00 0.01 0.01 86 1014.7
20141031132007 43 102 2.0 4.0 0.00 0.01 0.01 86 1014.8
20141031130006 42 138 2.0 4.0 0.00 0.01 0.01 86 1014.7
20141031125007 42 129 0.0 4.0 0.00 0.01 0.01 87 1014.8
20141031124007 42 116 3.0 4.0 0.01 0.01 0.01 87 1014.7
20141031120007 42 105 3.0 6.0 0.01 0.01 0.01 88 1014.7
20141031114006 42 120 3.0 5.0 0.00 0.00 0.00 89 1014.6
20141031111006 42 108 2.0 4.0 0.00 0.00 0.00 90 1014.9
20141031105006 42 103 2.0 3.0 0.00 0.00 0.00 90 1015.2
20141031104005 42 103 2.0 2.0 0.00 0.00 0.00 90 1015.1
20141031101005 42 104 2.0 3.0 0.00 0.00 0.00 91 1015.1
20141031100005 42 90 2.0 3.0 0.00 0.00 0.00 90 1015.2
20141031093004 42 146 0.0 2.0 0.00 0.00 0.00 91 1015.3
20141031092004 42 181 0.0 1.0 0.00 0.00 0.00 91 1015.3
20141031091005 42 181 0.0 2.0 0.00 0.00 0.00 91 1015.4
20141031090004 42 0 0.0 0.0 0.00 0.00 0.00 90 1015.4
20141031085004 42 0 0.0 0.0 0.00 0.00 0.00 90 1015.5
20141031084004 42 90 0.0 1.0 0.00 0.00 0.00 89 1015.5
20141031083005 43 90 0.0 2.0 0.00 0.00 0.00 89 1015.6
20141031080004 43 181 0.0 2.0 0.00 0.00 0.00 88 1015.8
20141031075003 43 0 0.0 0.0 0.00 0.00 0.00 86 1016.0
20141031074004 43 122 0.0 2.0 0.00 0.00 0.00 86 1016.1
20141031071035 44 129 0.0 2.0 0.00 0.00 0.00 84 1016.2
20141031065034 44 68 0.0 3.0 0.00 0.00 0.00 83 1016.3
20141031064033 44 120 2.0 4.0 0.00 0.00 0.00 83 1016.2
20141031063034 44 107 0.0 4.0 0.00 0.00 0.00 84 1016.3
20141031062034 43 118 2.0 4.0 0.00 0.00 0.00 86 1016.4
20141031061033 43 94 2.0 4.0 0.00 0.00 0.00 87 1016.5
20141031060033 43 108 2.0 4.0 0.00 0.00 0.00 86 1016.4
20141031055034 43 87 1.0 4.0 0.00 0.00 0.00 86 1016.5
20141031054033 43 356 1.0 3.0 0.00 0.00 0.00 87 1016.5
20141031053033 42 73 1.0 4.0 0.00 0.00 0.00 89 1016.6
20141031052032 42 46 1.0 4.0 0.00 0.00 0.00 89 1016.6
20141031050033 43 123 0.0 2.0 0.00 0.00 0.00 87 1016.5
20141031045033 42 90 0.0 2.0 0.00 0.00 0.00 87 1016.6
20141031044032 42 7 1.0 2.0 0.00 0.00 0.00 85 1016.5
20141031041032 44 135 1.0 2.0 0.00 0.00 0.00 80 1016.9
20141031040032 44 113 1.0 2.0 0.00 0.00 0.00 81 1017.1
20141031033032 43 106 0.0 2.0 0.00 0.00 0.00 82 1017.2
20141031030031 44 87 0.0 2.0 0.00 0.00 0.00 79 1017.3
20141031025031 44 98 2.0 3.0 0.00 0.00 0.00 81 1017.4
20141031024032 43 135 1.0 2.0 0.00 0.00 0.00 83 1017.5
20141031022031 43 32 1.0 2.0 0.00 0.00 0.00 85 1017.4
20141031021031 42 0 0.0 0.0 0.00 0.00 0.00 84 1017.5
20141031015031 44 1 0.0 2.0 0.00 0.00 0.00 80 1017.5
20141031013030 46 117 2.0 6.0 0.00 0.00 0.00 71 1017.4
20141031012030 47 99 3.0 7.0 0.00 0.00 0.00 71 1017.3
20141031011031 47 108 4.0 7.0 0.00 0.00 0.00 70 1017.3
20141031010327 47 50 2.0 4.0 0.00 0.00 0.00 67 1017.2
20141031005030 49 98 2.0 3.0 0.00 0.00 0.00 63 1017.4
20141031004029 48 135 1.0 2.0 0.00 0.00 0.00 64 1017.6
20141031002030 49 127 2.0 4.0 0.00 0.00 0.00 63 1017.5
20141031000029 49 105 1.0 3.0 0.00 0.00 0.00 62 1017.6
20141030235029 50 97 1.0 3.0 0.00 0.00 0.00 61 1017.5
20141030234029 49 127 2.0 2.0 0.00 0.00 0.00 62 1017.8
20141030233029 49 135 1.0 2.0 0.00 0.00 0.00 63 1017.8
20141030231030 50 112 1.0 3.0 0.00 0.00 0.00 60 1017.8
20141030230029 50 135 1.0 2.0 0.00 0.00 0.00 60 1017.8
20141030221028 54 90 1.0 2.0 0.00 0.00 0.00 55 1017.7
20141030215027 55 90 0.0 2.0 0.00 0.00 0.00 50 1017.7
20141030214028 57 13 0.0 2.0 0.00 0.00 0.00 46 1017.6
20141030213028 61 59 0.0 2.0 0.00 0.00 0.00 45 1017.6